Content
SEND FEEDBACK

Daily
Averages
Monthly
Summary
United States of America

GREENVILLE, TEXAS


Home > North America > United States > Texas
Elevation: 540 feet     Latitude: 33 04N     Longitude: 096 04W

WEATHER
 
SELECT A DAY
Number of Records: 232,312;   Date Range: 1/3/95 - 8/12/14
 
SHARE

PRINT THIS DATA

[ ← Previous Day ]
WEATHER ALMANAC - JANUARY 31, 2013
[ Next Day → ]
[ °C ]   °F
Weather ElementAverageHighLow
Temperature43.5 °F66.2 °F (2:55 pm) (1:15 pm)
Dewpoint23 °F32 °F (7:55 pm) (7:00 pm)
Humidity48.1 %75 % (7:55 am)14 % (3:15 pm)
Barometer29.19 in30.34 in (11:55 pm) (7:00 pm)
Wind Speed9 mph19.6 mph (8:55 pm)
Wind Gust25.3 mph (2:15 pm)
Weather ElementAverage
Visibility10 mi
Wind DirectionSSE (167.7 °)

Weather ElementTotal
Precipitation---
Heating Degree Days31.9 (Base 65)
Averaged from 61 records on January 31, 2013
WEATHER CONDITIONS BREAKOUT
WIND DIRECTION BREAKOUT
WEATHER BY HOUR - JANUARY 31, 2013
[ °C ]   °F
Local TimeTemperatureDewpointHumidityBarometerVisibilityWind DirectionWind SpeedGust SpeedPrecipitationEventsConditions
12:35 AM35.6 °F26.6 °F70 %30.13 in10.0 miCalmClear
12:55 AM37.4 °F23.0 °F56 %30.13 in10.0 miSW (230°)4.6 mphClear
1:15 AM37.4 °F23.0 °F56 %30.14 in10.0 miSW (220°)6.9 mphClear
1:35 AM37.4 °F23.0 °F56 %30.14 in10.0 miSW (220°)5.8 mphClear
1:55 AM37.4 °F23.0 °F56 %30.13 in10.0 miSW (230°)5.8 mphClear
2:15 AM37.4 °F23.0 °F56 %30.14 in10.0 miSW (220°)6.9 mphClear
2:35 AM37.4 °F24.8 °F60 %30.14 in10.0 miSW (220°)5.8 mphClear
2:55 AM35.6 °F24.8 °F65 %30.14 in10.0 miSSW (210°)5.8 mphClear
3:15 AM35.6 °F23.0 °F60 %30.15 in10.0 miSSW (210°)6.9 mphClear
3:35 AM33.8 °F24.8 °F70 %30.15 in10.0 miSSW (200°)4.6 mphClear
3:55 AM33.8 °F24.8 °F70 %30.15 in10.0 miSSW (200°)4.6 mphClear
4:15 AM35.6 °F24.8 °F65 %30.15 in10.0 miSSW (210°)5.8 mphClear
4:35 AM35.6 °F23.0 °F60 %30.15 in10.0 miSouth (190°)4.6 mphClear
4:55 AM33.8 °F24.8 °F70 %30.15 in10.0 miSSW (200°)6.9 mphClear
5:15 AM35.6 °F24.8 °F65 %30.15 in10.0 miSSW (200°)6.9 mphClear
5:35 AM33.8 °F24.8 °F70 %30.14 in10.0 miSouth (190°)8.1 mphClear
5:55 AM35.6 °F24.8 °F65 %30.14 in10.0 miSSW (200°)9.2 mphClear
6:15 AM35.6 °F23.0 °F60 %30.14 in10.0 miSSW (200°)6.9 mphClear
6:35 AM35.6 °F23.0 °F60 %30.15 in10.0 miSSW (200°)5.8 mphClear
6:55 AM35.6 °F23.0 °F60 %30.16 in10.0 miSSW (210°)6.9 mphClear
7:15 AM35.6 °F23.0 °F60 %30.16 in10.0 miSSW (210°)5.8 mphClear
7:35 AM35.6 °F23.0 °F60 %30.16 in10.0 miSSW (210°)4.6 mphClear
7:55 AM33.8 °F26.6 °F75 %30.17 in10.0 miSouth (180°)4.6 mphClear
8:15 AM37.4 °F26.6 °F65 %30.18 in10.0 miSouth (180°)3.5 mphClear
8:35 AM39.2 °F24.8 °F56 %30.19 in10.0 miSouth (190°)6.9 mphClear
8:55 AM41.0 °F26.6 °F57 %30.19 in10.0 miSouth (180°)5.8 mphClear
9:15 AM42.8 °F26.6 °F53 %30.19 in10.0 miSouth (180°)8.1 mphClear
9:35 AM46.4 °F26.6 °F46 %30.20 in10.0 miSouth (190°)9.2 mphClear
9:55 AM48.2 °F24.8 °F40 %30.20 in10.0 miSouth (190°)12.7 mphClear
10:15 AM50.0 °F23.0 °F35 %30.20 in10.0 miSSW (200°)10.4 mphClear
10:35 AM51.8 °F23.0 °F33 %30.20 in10.0 miSouth (190°)10.4 mphClear
10:55 AM53.6 °F24.8 °F33 %30.21 in10.0 miSouth (190°)10.4 mphClear
11:15 AM55.4 °F24.8 °F31 %30.21 in10.0 miSSW (200°)9.2 mphClear
11:35 AM57.2 °F24.8 °F29 %30.20 in10.0 miSSW (200°)6.9 mphClear
11:55 AM59.0 °F24.8 °F27 %30.20 in10.0 miSouth (190°)11.5 mphClear
12:15 PM60.8 °F21.2 °F22 %30.19 in10.0 miSSW (200°)11.5 mph17.3 mphClear
12:35 PM62.6 °F21.2 °F20 %30.18 in10.0 miSouth (180°)10.4 mphClear
1:15 PM0.0 °F0.0 °FNorth
1:35 PM0.0 °F0.0 °FNorth
2:15 PM64.4 °F17.6 °F16 %30.12 in10.0 miSSW (200°)16.1 mph25.3 mph
2:35 PM64.4 °F17.6 °F16 %30.12 in10.0 miSSW (210°)15.0 mph20.7 mphClear
2:55 PM66.2 °F17.6 °F15 %30.12 in10.0 miSSW (200°)16.1 mph20.7 mphClear
3:15 PM66.2 °F15.8 °F14 %30.12 in10.0 miSSW (210°)11.5 mph21.9 mphClear
3:35 PM66.2 °F17.6 °F15 %30.11 in10.0 miSouth (190°)16.1 mph24.2 mphClear
3:55 PM66.2 °F17.6 °F15 %30.11 in10.0 miSW (220°)13.8 mph23.0 mphClear
4:15 PM66.2 °F17.6 °F15 %30.11 in10.0 miSW (220°)15.0 mphClear
4:35 PM64.4 °F17.6 °F16 %30.10 in10.0 miSSW (210°)15.0 mph20.7 mphClear
4:55 PM64.4 °F17.6 °F16 %30.11 in10.0 miSSW (210°)11.5 mph21.9 mphClear
5:55 PM0.0 °F0.0 °F30.14 in10.0 miSSW (210°)5.8 mphClear
7:15 PM50.0 °F26.6 °F40 %30.17 in10.0 miSouth (190°)5.8 mphClear
7:55 PM46.4 °F32.0 °F57 %30.19 in10.0 miCalmClear
8:15 PM46.4 °F30.2 °F53 %30.21 in10.0 miWNW (290°)6.9 mphClear
8:55 PM50.0 °F30.2 °F47 %30.26 in10.0 miNorth (10°)19.6 mph24.2 mphClear
9:15 PM48.2 °F32.0 °F54 %30.27 in10.0 miNorth (360°)11.5 mphClear
9:35 PM46.4 °F30.2 °F53 %30.29 in10.0 miNorth (10°)13.8 mph21.9 mphClear
10:15 PM44.6 °F28.4 °F53 %30.30 in10.0 miNorth (10°)13.8 mph24.2 mphClear
10:35 PM42.8 °F30.2 °F61 %30.30 in10.0 miNorth (10°)12.7 mph25.3 mphClear
10:55 PM42.8 °F30.2 °F61 %30.32 in10.0 miNorth (10°)13.8 mph25.3 mphClear
11:15 PM41.0 °F28.4 °F61 %30.32 in10.0 miNorth (10°)16.1 mph21.9 mphClear
11:35 PM41.0 °F28.4 °F61 %30.33 in10.0 miNNE (20°)12.7 mph20.7 mphClear
11:55 PM39.2 °F26.6 °F61 %30.34 in10.0 miNorth (10°)9.2 mph16.1 mphClear
Hourly data recorded from KGVT, located miles away from Greenville, Texas







STORIES FROM OUR PARTNERS